Hourly Data Report for June 14, 2020

FISHER BRANCH (AUT)
MANITOBA
Current Station Operator: ECCC - MSC

51°05'00.100" N
97°33'16.200" W
253.00 m
50309J6
71442
WSZ

Download Data

Hourly Data (June 2020)
Hourly Data Report for June 14, 2020
TIME
LST
Temp Definition
°C
Dew Point Definition
°C
Rel Hum Definition
%
Precip. Amount Definition
mm

Wind Dir Definition
10's deg

Wind Spd Definition
km/h
Visibility Definition
km
Stn Press Definition
kPa
Hmdx Definition


Wind Chill Definition


Weather Definition


00:00 11.4 3.4 58 0.0 12 14   98.90     LegendNANA
01:00 12.6 4.8 59 0.2 13 17   98.84     LegendNANA
02:00 12.3 5.3 62 0.0 13 18   98.82     LegendNANA
03:00 12.5 5.9 64 0.0 13 17   98.81     LegendNANA
04:00 13.8 6.6 62 0.0 13 21   98.76     LegendNANA
05:00 13.8 7.2 65 0.0 14 23   98.73     LegendNANA
06:00 14.8 7.9 63 0.0 14 26   98.74     LegendNANA
07:00 16.4 8.4 59 0.0 14 24   98.73     LegendNANA
08:00 18.1 9.1 56 0.0 14 28   98.67     LegendNANA
09:00 19.7 9.2 51 0.0 14 31   98.61     LegendNANA
10:00 21.8 10.3 48 0.0 14 29   98.58     LegendNANA
11:00 23.7 10.9 45 0.0 14 27   98.57 25   LegendNANA
12:00 24.3 10.4 41 0.0 12 35   98.49 26   LegendNANA
13:00 25.3 10.6 40 0.0 12 38   98.43 27   LegendNANA
14:00 25.8 11.5 41 0.0 12 38   98.37 28   LegendNANA
15:00 25.5 11.6 42 0.0 13 39   98.37 28   LegendNANA
16:00 25.2 10.9 41 0.0 13 39   98.28 27   LegendNANA
17:00 25.0 9.4 37 0.0 12 43   98.22 26   LegendNANA
18:00 23.8 8.4 37 0.0 13 41   98.22     LegendNANA
19:00 22.9 7.2 36 0.0 13 33   98.30     LegendNANA
20:00 22.4 6.8 36 0.0 12 32   98.29     LegendNANA
21:00 21.4 6.8 39 0.0 12 31   98.28     LegendNANA
22:00 20.6 7.4 42 0.0 12 25   98.29     LegendNANA
23:00 20.0 8.2 47 0.0 12 24   98.26     LegendNANA

Notes on Data Quality.

Legend

  • E = Estimated
  • M = Missing
  • NA = Not Available*
  • [empty] = Indicates an unobserved value
Date modified: